Zurück zum Katalog

SL-14 R/B

AktivPO
NORAD 18340·ROCKET BODY·🇷🇺 Russia

Gestartet Sep 7, 1987 von Plesetsk Cosmodrome

Loading…

Nächste Überflüge (nächste 24 Stunden)

TLE

AktuellSource: Space-Track

Epoche: Sep 14, 2026, 07:04 UTC

1 18340U 87074G   26257.29500998  .00000020  00000-0  59607-4 0  9999
2 18340  82.5734  20.3082 0039731   9.8314  15.8830 12.55580311788199

Verfolge SL-14 R/B in Echtzeit mit AllMySat

Download on the App Store